M I D A S
Marine Information and Data Acquisition System
Tripno 1269 of the Zeeleeuw from 2007-05-08 12:31:52 to 2007-05-08 13:35:23
Back to CruiseResearch ActivitiesStationsMapUnderway DataData graphs

EquipmentUnitsComments
TimeDGPSUTC
LatitudeDGPSDM.mWGS84
LongitudeDGPSDM.mWGS84
SpeedMeteo Stationm/sRelative wind speed
DirectionMeteo StationdegRelative wind direction
TemperatureMeteo Stationdeg CelciusAir temperature
PressureMeteo StationPaAtmospheric pressure
HumidityMeteo Station%Relative humidity
Missing or incorrect values are displayed as -999
Metereological data collected by the RV Zeeleeuw from 2007-05-08 07:31:53 to 2007-05-08 13:50:53
Time Latitude Longitude Speed Direction Temperature Pressure Humidity
2007-05-08 07:32 51°13.795 2°55.67 -999 -999 -999 -999 -999
2007-05-08 07:33 51°13.933 2°55.561 -999 -999 -999 -999 -999
2007-05-08 07:34 51°14.086 2°55.466 -999 -999 -999 -999 -999
2007-05-08 07:35 51°14.232 2°55.327 -999 -999 -999 -999 -999
2007-05-08 07:36 51°14.355 2°55.091 -999 -999 -999 -999 -999
2007-05-08 07:37 51°14.471 2°54.816 -999 -999 -999 -999 -999
2007-05-08 07:38 51°14.566 2°54.503 -999 -999 -999 -999 -999
2007-05-08 07:39 51°14.626 2°54.167 -999 -999 -999 -999 -999
2007-05-08 07:40 51°14.66 2°53.828 -999 -999 -999 -999 -999
2007-05-08 07:41 51°14.683 2°53.487 -999 -999 -999 -999 -999
2007-05-08 07:42 51°14.691 2°53.15 -999 -999 -999 -999 -999
2007-05-08 07:43 51°14.672 2°52.809 -999 -999 -999 -999 -999
2007-05-08 07:44 51°14.659 2°52.468 -999 -999 -999 -999 -999
2007-05-08 07:45 51°14.648 2°52.131 -999 -999 -999 -999 -999
2007-05-08 07:46 51°14.612 2°51.968 -999 -999 -999 -999 -999
2007-05-08 07:47 51°14.583 2°51.955 -999 -999 -999 -999 -999
2007-05-08 07:48 51°14.569 2°51.962 -999 -999 -999 -999 -999
2007-05-08 07:49 51°14.565 2°51.979 -999 -999 -999 -999 -999
2007-05-08 07:50 51°14.562 2°51.997 -999 -999 -999 -999 -999
2007-05-08 07:51 51°14.526 2°52.014 -999 -999 -999 -999 -999
2007-05-08 07:52 51°14.459 2°51.949 -999 -999 -999 -999 -999
2007-05-08 07:53 51°14.441 2°51.875 -999 -999 -999 -999 -999
2007-05-08 07:54 51°14.44 2°51.827 -999 -999 -999 -999 -999
2007-05-08 07:55 51°14.436 2°51.773 -999 -999 -999 -999 -999
2007-05-08 07:56 51°14.433 2°51.695 -999 -999 -999 -999 -999
2007-05-08 07:57 51°14.441 2°51.603 -999 -999 -999 -999 -999
2007-05-08 07:58 51°14.426 2°51.522 -999 -999 -999 -999 -999
2007-05-08 07:59 51°14.403 2°51.435 -999 -999 -999 -999 -999
2007-05-08 08:00 51°14.396 2°51.337 -999 -999 -999 -999 -999
2007-05-08 08:01 51°14.37 2°51.25 -999 -999 -999 -999 -999
2007-05-08 08:02 51°14.352 2°51.155 -999 -999 -999 -999 -999
2007-05-08 08:03 51°14.35 2°51.059 -999 -999 -999 -999 -999
2007-05-08 08:04 51°14.333 2°50.985 -999 -999 -999 -999 -999
2007-05-08 08:05 51°14.304 2°50.901 -999 -999 -999 -999 -999
2007-05-08 08:06 51°14.291 2°50.808 -999 -999 -999 -999 -999
2007-05-08 08:07 51°14.278 2°50.714 -999 -999 -999 -999 -999
2007-05-08 08:08 51°14.248 2°50.644 -999 -999 -999 -999 -999
2007-05-08 08:09 51°14.218 2°50.58 -999 -999 -999 -999 -999
2007-05-08 08:10 51°14.193 2°50.506 -999 -999 -999 -999 -999
2007-05-08 08:11 51°14.171 2°50.428 -999 -999 -999 -999 -999
2007-05-08 08:12 51°14.145 2°50.346 -999 -999 -999 -999 -999
2007-05-08 08:13 51°14.111 2°50.272 -999 -999 -999 -999 -999
2007-05-08 08:14 51°14.079 2°50.206 -999 -999 -999 -999 -999
2007-05-08 08:15 51°14.049 2°50.125 -999 -999 -999 -999 -999
2007-05-08 08:16 51°14.024 2°50.032 -999 -999 -999 -999 -999
2007-05-08 08:17 51°13.998 2°49.937 -999 -999 -999 -999 -999
2007-05-08 08:18 51°13.97 2°49.863 -999 -999 -999 -999 -999
2007-05-08 08:19 51°13.938 2°49.797 -999 -999 -999 -999 -999
2007-05-08 08:20 51°13.906 2°49.733 -999 -999 -999 -999 -999
2007-05-08 08:21 51°13.878 2°49.659 -999 -999 -999 -999 -999
2007-05-08 08:22 51°13.856 2°49.575 -999 -999 -999 -999 -999
2007-05-08 08:23 51°13.843 2°49.482 -999 -999 -999 -999 -999
2007-05-08 08:24 51°13.839 2°49.39 -999 -999 -999 -999 -999
2007-05-08 08:25 51°13.832 2°49.301 -999 -999 -999 -999 -999
2007-05-08 08:26 51°13.813 2°49.221 -999 -999 -999 -999 -999
2007-05-08 08:27 51°13.79 2°49.148 -999 -999 -999 -999 -999
2007-05-08 08:28 51°13.767 2°49.075 -999 -999 -999 -999 -999
2007-05-08 08:29 51°13.749 2°48.993 -999 -999 -999 -999 -999
2007-05-08 08:30 51°13.737 2°48.911 -999 -999 -999 -999 -999
2007-05-08 08:31 51°13.744 2°48.833 -999 -999 -999 -999 -999
2007-05-08 08:32 51°13.787 2°48.779 -999 -999 -999 -999 -999
2007-05-08 08:33 51°13.838 2°48.815 -999 -999 -999 -999 -999
2007-05-08 08:34 51°13.837 2°48.903 -999 -999 -999 -999 -999
2007-05-08 08:35 51°13.789 2°48.938 -999 -999 -999 -999 -999
2007-05-08 08:36 51°13.742 2°48.91 -999 -999 -999 -999 -999
2007-05-08 08:37 51°13.722 2°48.843 -999 -999 -999 -999 -999
2007-05-08 08:38 51°13.759 2°48.801 -999 -999 -999 -999 -999
2007-05-08 08:39 51°13.784 2°48.792 -999 -999 -999 -999 -999
2007-05-08 08:40 51°13.798 2°48.79 -999 -999 -999 -999 -999
2007-05-08 08:41 51°13.839 2°48.801 -999 -999 -999 -999 -999
2007-05-08 08:42 51°13.885 2°48.924 -999 -999 -999 -999 -999
2007-05-08 08:43 51°13.969 2°49.202 -999 -999 -999 -999 -999
2007-05-08 08:44 51°14.049 2°49.509 -999 -999 -999 -999 -999
2007-05-08 08:45 51°14.126 2°49.817 -999 -999 -999 -999 -999
2007-05-08 08:46 51°14.204 2°50.126 -999 -999 -999 -999 -999
2007-05-08 08:47 51°14.265 2°50.448 -999 -999 -999 -999 -999
2007-05-08 08:48 51°14.32 2°50.771 -999 -999 -999 -999 -999
2007-05-08 08:49 51°14.385 2°51.091 -999 -999 -999 -999 -999
2007-05-08 08:50 51°14.438 2°51.412 -999 -999 -999 -999 -999
2007-05-08 08:51 51°14.483 2°51.742 -999 -999 -999 -999 -999
2007-05-08 08:52 51°14.524 2°52.071 -999 -999 -999 -999 -999
2007-05-08 08:53 51°14.559 2°52.396 -999 -999 -999 -999 -999
2007-05-08 08:54 51°14.588 2°52.734 -999 -999 -999 -999 -999
2007-05-08 08:55 51°14.617 2°53.059 -999 -999 -999 -999 -999
2007-05-08 08:56 51°14.633 2°53.396 -999 -999 -999 -999 -999
2007-05-08 08:57 51°14.63 2°53.727 -999 -999 -999 -999 -999
2007-05-08 08:58 51°14.583 2°54.062 -999 -999 -999 -999 -999
2007-05-08 08:59 51°14.548 2°54.384 -999 -999 -999 -999 -999
2007-05-08 09:00 51°14.474 2°54.693 -999 -999 -999 -999 -999
2007-05-08 09:01 51°14.387 2°54.995 -999 -999 -999 -999 -999
2007-05-08 09:02 51°14.264 2°55.269 -999 -999 -999 -999 -999
2007-05-08 09:03 51°14.126 2°55.428 -999 -999 -999 -999 -999
2007-05-08 09:04 51°14.006 2°55.511 -999 -999 -999 -999 -999
2007-05-08 09:05 51°13.877 2°55.596 -999 -999 -999 -999 -999
2007-05-08 09:06 51°13.767 2°55.696 -999 -999 -999 -999 -999
2007-05-08 09:07 51°13.697 2°55.803 -999 -999 -999 -999 -999
2007-05-08 09:08 51°13.65 2°55.901 -999 -999 -999 -999 -999
2007-05-08 09:09 51°13.621 2°55.989 -999 -999 -999 -999 -999
2007-05-08 09:10 51°13.607 2°56.062 -999 -999 -999 -999 -999
2007-05-08 09:11 51°13.602 2°56.096 -999 -999 -999 -999 -999
2007-05-08 09:12 51°13.601 2°56.1 -999 -999 -999 -999 -999
2007-05-08 09:13 51°13.602 2°56.1 -999 -999 -999 -999 -999
2007-05-08 09:14 51°13.602 2°56.099 -999 -999 -999 -999 -999
2007-05-08 09:15 51°13.602 2°56.1 -999 -999 -999 -999 -999
2007-05-08 09:16 51°13.602 2°56.1 -999 -999 -999 -999 -999
2007-05-08 09:17 51°13.603 2°56.1 -999 -999 -999 -999 -999
2007-05-08 09:18 51°13.601 2°56.099 -999 -999 -999 -999 -999
2007-05-08 09:19 51°13.601 2°56.099 -999 -999 -999 -999 -999
2007-05-08 09:20 51°13.601 2°56.1 -999 -999 -999 -999 -999
2007-05-08 09:21 51°13.602 2°56.1 -999 -999 -999 -999 -999
2007-05-08 09:22 51°13.603 2°56.101 -999 -999 -999 -999 -999
2007-05-08 09:23 51°13.603 2°56.1 -999 -999 -999 -999 -999
2007-05-08 09:24 51°13.602 2°56.1 -999 -999 -999 -999 -999
2007-05-08 09:25 51°13.603 2°56.1 -999 -999 -999 -999 -999
2007-05-08 09:26 51°13.603 2°56.099 -999 -999 -999 -999 -999
2007-05-08 09:27 51°13.602 2°56.1 -999 -999 -999 -999 -999
2007-05-08 09:28 51°13.604 2°56.1 -999 -999 -999 -999 -999
2007-05-08 09:29 51°13.603 2°56.099 -999 -999 -999 -999 -999
2007-05-08 09:30 51°13.603 2°56.099 -999 -999 -999 -999 -999
2007-05-08 09:31 51°13.603 2°56.099 -999 -999 -999 -999 -999
2007-05-08 09:32 51°13.603 2°56.098 -999 -999 -999 -999 -999
2007-05-08 09:33 51°13.602 2°56.098 -999 -999 -999 -999 -999
2007-05-08 09:34 51°13.602 2°56.099 -999 -999 -999 -999 -999
2007-05-08 09:35 51°13.601 2°56.1 -999 -999 -999 -999 -999
2007-05-08 09:36 51°13.601 2°56.1 -999 -999 -999 -999 -999
2007-05-08 09:37 51°13.601 2°56.099 -999 -999 -999 -999 -999
2007-05-08 09:38 51°13.601 2°56.1 -999 -999 -999 -999 -999
2007-05-08 09:39 51°13.601 2°56.1 -999 -999 -999 -999 -999
2007-05-08 09:40 51°13.602 2°56.1 -999 -999 -999 -999 -999
2007-05-08 09:41 51°13.602 2°56.1 -999 -999 -999 -999 -999
2007-05-08 09:42 51°13.602 2°56.099 -999 -999 -999 -999 -999
2007-05-08 09:43 51°13.602 2°56.099 -999 -999 -999 -999 -999
2007-05-08 09:44 51°13.602 2°56.099 -999 -999 -999 -999 -999
2007-05-08 09:45 51°13.602 2°56.099 -999 -999 -999 -999 -999
2007-05-08 09:46 51°13.602 2°56.1 -999 -999 -999 -999 -999
2007-05-08 09:47 51°13.602 2°56.099 -999 -999 -999 -999 -999
2007-05-08 09:48 51°13.603 2°56.099 -999 -999 -999 -999 -999
2007-05-08 09:49 51°13.603 2°56.099 -999 -999 -999 -999 -999
2007-05-08 09:50 51°13.602 2°56.1 -999 -999 -999 -999 -999
2007-05-08 09:51 51°13.603 2°56.1 -999 -999 -999 -999 -999
2007-05-08 09:52 51°13.603 2°56.1 -999 -999 -999 -999 -999
2007-05-08 09:53 51°13.603 2°56.099 -999 -999 -999 -999 -999
2007-05-08 09:54 51°13.603 2°56.099 -999 -999 -999 -999 -999
2007-05-08 09:55 51°13.603 2°56.1 -999 -999 -999 -999 -999
2007-05-08 09:56 51°13.602 2°56.1 -999 -999 -999 -999 -999
2007-05-08 09:57 51°13.603 2°56.1 -999 -999 -999 -999 -999
2007-05-08 09:58 51°13.602 2°56.099 -999 -999 -999 -999 -999
2007-05-08 09:59 51°13.602 2°56.099 -999 -999 -999 -999 -999
2007-05-08 10:00 51°13.602 2°56.099 -999 -999 -999 -999 -999
2007-05-08 10:01 51°13.602 2°56.099 -999 -999 -999 -999 -999
2007-05-08 10:02 51°13.602 2°56.099 -999 -999 -999 -999 -999
2007-05-08 10:03 51°13.602 2°56.1 -999 -999 -999 -999 -999
2007-05-08 10:04 51°13.602 2°56.1 -999 -999 -999 -999 -999
2007-05-08 10:05 51°13.602 2°56.1 -999 -999 -999 -999 -999
2007-05-08 10:06 51°13.602 2°56.1 -999 -999 -999 -999 -999
2007-05-08 10:07 51°13.602 2°56.099 -999 -999 -999 -999 -999
2007-05-08 10:08 51°13.602 2°56.099 -999 -999 -999 -999 -999
2007-05-08 10:09 51°13.602 2°56.099 -999 -999 -999 -999 -999
2007-05-08 10:10 51°13.603 2°56.098 -999 -999 -999 -999 -999
2007-05-08 10:11 51°13.603 2°56.098 -999 -999 -999 -999 -999
2007-05-08 10:12 51°13.603 2°56.098 -999 -999 -999 -999 -999
2007-05-08 10:13 51°13.603 2°56.098 -999 -999 -999 -999 -999
2007-05-08 10:14 51°13.603 2°56.098 -999 -999 -999 -999 -999
2007-05-08 10:15 51°13.603 2°56.098 -999 -999 -999 -999 -999
2007-05-08 10:16 51°13.603 2°56.099 -999 -999 -999 -999 -999
2007-05-08 10:17 51°13.603 2°56.098 -999 -999 -999 -999 -999
2007-05-08 10:18 51°13.604 2°56.099 -999 -999 -999 -999 -999
2007-05-08 10:19 51°13.604 2°56.099 -999 -999 -999 -999 -999
2007-05-08 10:20 51°13.603 2°56.099 -999 -999 -999 -999 -999
2007-05-08 10:21 51°13.603 2°56.099 -999 -999 -999 -999 -999
2007-05-08 10:22 51°13.602 2°56.1 -999 -999 -999 -999 -999
2007-05-08 10:23 51°13.602 2°56.1 -999 -999 -999 -999 -999
2007-05-08 10:24 51°13.602 2°56.1 -999 -999 -999 -999 -999
2007-05-08 10:25 51°13.602 2°56.1 -999 -999 -999 -999 -999
2007-05-08 10:26 51°13.602 2°56.1 -999 -999 -999 -999 -999
2007-05-08 10:27 51°13.602 2°56.1 -999 -999 -999 -999 -999
2007-05-08 10:28 51°13.602 2°56.1 -999 -999 -999 -999 -999
2007-05-08 10:29 51°13.602 2°56.1 -999 -999 -999 -999 -999
2007-05-08 10:30 51°13.602 2°56.1 -999 -999 -999 -999 -999
2007-05-08 10:31 51°13.602 2°56.1 -999 -999 -999 -999 -999
2007-05-08 10:32 51°13.602 2°56.1 -999 -999 -999 -999 -999
2007-05-08 10:33 51°13.602 2°56.1 -999 -999 -999 -999 -999
2007-05-08 10:34 51°13.602 2°56.1 -999 -999 -999 -999 -999
2007-05-08 10:35 51°13.603 2°56.1 -999 -999 -999 -999 -999
2007-05-08 10:36 51°13.603 2°56.1 -999 -999 -999 -999 -999
2007-05-08 10:37 51°13.602 2°56.099 -999 -999 -999 -999 -999
2007-05-08 10:38 51°13.603 2°56.099 -999 -999 -999 -999 -999
2007-05-08 10:39 51°13.602 2°56.099 -999 -999 -999 -999 -999
2007-05-08 10:40 51°13.601 2°56.099 -999 -999 -999 -999 -999
2007-05-08 10:41 51°13.601 2°56.099 -999 -999 -999 -999 -999
2007-05-08 10:42 51°13.602 2°56.099 -999 -999 -999 -999 -999
2007-05-08 10:43 51°13.602 2°56.099 -999 -999 -999 -999 -999
2007-05-08 10:44 51°13.602 2°56.099 -999 -999 -999 -999 -999
2007-05-08 10:45 51°13.602 2°56.099 -999 -999 -999 -999 -999
2007-05-08 10:46 51°13.602 2°56.1 -999 -999 -999 -999 -999
2007-05-08 10:47 51°13.602 2°56.1 -999 -999 -999 -999 -999
2007-05-08 10:48 51°13.602 2°56.1 -999 -999 -999 -999 -999
2007-05-08 10:49 51°13.602 2°56.1 -999 -999 -999 -999 -999
2007-05-08 10:50 51°13.602 2°56.1 -999 -999 -999 -999 -999
2007-05-08 10:51 51°13.602 2°56.1 -999 -999 -999 -999 -999
2007-05-08 10:52 51°13.602 2°56.1 -999 -999 -999 -999 -999
2007-05-08 10:53 51°13.602 2°56.099 -999 -999 -999 -999 -999
2007-05-08 10:54 51°13.602 2°56.1 -999 -999 -999 -999 -999
2007-05-08 10:55 51°13.602 2°56.099 -999 -999 -999 -999 -999
2007-05-08 10:56 51°13.602 2°56.099 -999 -999 -999 -999 -999
2007-05-08 10:57 51°13.602 2°56.099 -999 -999 -999 -999 -999
2007-05-08 10:58 51°13.602 2°56.099 -999 -999 -999 -999 -999
2007-05-08 10:59 51°13.602 2°56.1 -999 -999 -999 -999 -999
2007-05-08 11:00 51°13.602 2°56.1 -999 -999 -999 -999 -999
2007-05-08 11:01 51°13.602 2°56.1 -999 -999 -999 -999 -999
2007-05-08 11:02 51°13.602 2°56.1 -999 -999 -999 -999 -999
2007-05-08 11:03 51°13.602 2°56.1 -999 -999 -999 -999 -999
2007-05-08 11:04 51°13.602 2°56.1 -999 -999 -999 -999 -999
2007-05-08 11:05 51°13.602 2°56.1 -999 -999 -999 -999 -999
2007-05-08 11:06 51°13.602 2°56.1 -999 -999 -999 -999 -999
2007-05-08 11:07 51°13.602 2°56.1 -999 -999 -999 -999 -999
2007-05-08 11:08 51°13.602 2°56.1 -999 -999 -999 -999 -999
2007-05-08 11:09 51°13.602 2°56.1 -999 -999 -999 -999 -999
2007-05-08 11:10 51°13.602 2°56.1 -999 -999 -999 -999 -999
2007-05-08 11:11 51°13.602 2°56.1 -999 -999 -999 -999 -999
2007-05-08 11:12 51°13.602 2°56.1 -999 -999 -999 -999 -999
2007-05-08 11:13 51°13.602 2°56.099 -999 -999 -999 -999 -999
2007-05-08 11:14 51°13.602 2°56.099 -999 -999 -999 -999 -999
2007-05-08 11:15 51°13.602 2°56.099 -999 -999 -999 -999 -999
2007-05-08 11:16 51°13.602 2°56.099 -999 -999 -999 -999 -999
2007-05-08 11:17 51°13.602 2°56.099 -999 -999 -999 -999 -999
2007-05-08 11:18 51°13.602 2°56.099 -999 -999 -999 -999 -999
2007-05-08 11:19 51°13.602 2°56.099 -999 -999 -999 -999 -999
2007-05-08 11:20 51°13.602 2°56.099 -999 -999 -999 -999 -999
2007-05-08 11:21 51°13.602 2°56.099 -999 -999 -999 -999 -999
2007-05-08 11:22 51°13.602 2°56.1 -999 -999 -999 -999 -999
2007-05-08 11:23 51°13.602 2°56.1 -999 -999 -999 -999 -999
2007-05-08 11:24 51°13.602 2°56.099 -999 -999 -999 -999 -999
2007-05-08 11:25 51°13.602 2°56.099 -999 -999 -999 -999 -999
2007-05-08 11:26 51°13.602 2°56.099 -999 -999 -999 -999 -999
2007-05-08 11:27 51°13.602 2°56.098 -999 -999 -999 -999 -999
2007-05-08 11:28 51°13.602 2°56.099 -999 -999 -999 -999 -999
2007-05-08 11:29 51°13.602 2°56.099 -999 -999 -999 -999 -999
2007-05-08 11:30 51°13.602 2°56.1 -999 -999 -999 -999 -999
2007-05-08 11:31 51°13.602 2°56.1 -999 -999 -999 -999 -999
2007-05-08 11:32 51°13.602 2°56.101 -999 -999 -999 -999 -999
2007-05-08 11:33 51°13.602 2°56.1 -999 -999 -999 -999 -999
2007-05-08 11:34 51°13.603 2°56.1 -999 -999 -999 -999 -999
2007-05-08 11:35 51°13.602 2°56.101 -999 -999 -999 -999 -999
2007-05-08 11:36 51°13.602 2°56.1 -999 -999 -999 -999 -999
2007-05-08 11:37 51°13.602 2°56.099 -999 -999 -999 -999 -999
2007-05-08 11:38 51°13.602 2°56.099 -999 -999 -999 -999 -999
2007-05-08 11:39 51°13.602 2°56.099 -999 -999 -999 -999 -999
2007-05-08 11:40 51°13.602 2°56.099 -999 -999 -999 -999 -999
2007-05-08 11:41 51°13.602 2°56.099 -999 -999 -999 -999 -999
2007-05-08 11:42 51°13.602 2°56.1 -999 -999 -999 -999 -999
2007-05-08 11:43 51°13.603 2°56.099 -999 -999 -999 -999 -999
2007-05-08 11:44 51°13.601 2°56.098 -999 -999 -999 -999 -999
2007-05-08 11:45 51°13.602 2°56.098 -999 -999 -999 -999 -999
2007-05-08 11:46 51°13.601 2°56.098 -999 -999 -999 -999 -999
2007-05-08 11:47 51°13.6 2°56.099 -999 -999 -999 -999 -999
2007-05-08 11:48 51°13.601 2°56.099 -999 -999 -999 -999 -999
2007-05-08 11:49 51°13.601 2°56.099 -999 -999 -999 -999 -999
2007-05-08 11:50 51°13.601 2°56.099 -999 -999 -999 -999 -999
2007-05-08 11:51 51°13.601 2°56.1 -999 -999 -999 -999 -999
2007-05-08 11:52 51°13.602 2°56.101 -999 -999 -999 -999 -999
2007-05-08 11:53 51°13.603 2°56.1 -999 -999 -999 -999 -999
2007-05-08 11:54 51°13.602 2°56.099 -999 -999 -999 -999 -999
2007-05-08 11:55 51°13.602 2°56.099 -999 -999 -999 -999 -999
2007-05-08 11:56 51°13.602 2°56.1 -999 -999 -999 -999 -999
2007-05-08 11:57 51°13.601 2°56.1 -999 -999 -999 -999 -999
2007-05-08 11:58 51°13.602 2°56.101 -999 -999 -999 -999 -999
2007-05-08 11:59 51°13.602 2°56.1 -999 -999 -999 -999 -999
2007-05-08 12:00 51°13.602 2°56.1 -999 -999 -999 -999 -999
2007-05-08 12:01 51°13.601 2°56.1 -999 -999 -999 -999 -999
2007-05-08 12:02 51°13.601 2°56.097 -999 -999 -999 -999 -999
2007-05-08 12:03 51°13.617 2°56.046 -999 -999 -999 -999 -999
2007-05-08 12:04 51°13.641 2°55.952 -999 -999 -999 -999 -999
2007-05-08 12:05 51°13.672 2°55.852 -999 -999 -999 -999 -999
2007-05-08 12:06 51°13.692 2°55.776 -999 -999 -999 -999 -999
2007-05-08 12:07 51°13.697 2°55.725 -999 -999 -999 -999 -999
2007-05-08 12:08 51°13.714 2°55.728 -999 -999 -999 -999 -999
2007-05-08 12:09 51°13.773 2°55.686 -999 -999 -999 -999 -999
2007-05-08 12:10 51°13.868 2°55.611 -999 -999 -999 -999 -999
2007-05-08 12:11 51°14.015 2°55.511 -999 -999 -999 -999 -999
2007-05-08 12:12 51°14.178 2°55.377 -999 -999 -999 -999 -999
2007-05-08 12:13 51°14.324 2°55.17 -999 -999 -999 -999 -999
2007-05-08 12:14 51°14.437 2°54.894 -999 -999 -999 -999 -999
2007-05-08 12:15 51°14.535 2°54.596 -999 -999 -999 -999 -999
2007-05-08 12:16 51°14.608 2°54.279 -999 -999 -999 -999 -999
2007-05-08 12:17 51°14.652 2°53.957 -999 -999 -999 -999 -999
2007-05-08 12:18 51°14.649 2°53.617 -999 -999 -999 -999 -999
2007-05-08 12:19 51°14.642 2°53.292 -999 -999 -999 -999 -999
2007-05-08 12:20 51°14.634 2°52.951 -999 -999 -999 -999 -999
2007-05-08 12:21 51°14.629 2°52.611 -999 -999 -999 -999 -999
2007-05-08 12:22 51°14.623 2°52.272 -999 -999 -999 -999 -999
2007-05-08 12:23 51°14.618 2°51.932 -999 -999 -999 -999 -999
2007-05-08 12:24 51°14.613 2°51.592 -999 -999 -999 -999 -999
2007-05-08 12:25 51°14.594 2°51.296 -999 -999 -999 -999 -999
2007-05-08 12:26 51°14.535 2°51.201 -999 -999 -999 -999 -999
2007-05-08 12:27 51°14.497 2°51.182 -999 -999 -999 -999 -999
2007-05-08 12:28 51°14.467 2°51.179 -999 -999 -999 -999 -999
2007-05-08 12:29 51°14.413 2°51.151 -999 -999 -999 -999 -999
2007-05-08 12:30 51°14.371 2°51.093 -999 -999 -999 -999 -999
2007-05-08 12:31 51°14.351 2°51.011 -999 -999 -999 -999 -999
2007-05-08 12:32 51°14.348 2°50.912 -999 -999 -999 -999 -999
2007-05-08 12:33 51°14.343 2°50.834 -999 -999 -999 -999 -999
2007-05-08 12:34 51°14.311 2°50.744 -999 -999 -999 -999 -999
2007-05-08 12:35 51°14.274 2°50.663 -999 -999 -999 -999 -999
2007-05-08 12:36 51°14.242 2°50.6 -999 -999 -999 -999 -999
2007-05-08 12:37 51°14.22 2°50.525 -999 -999 -999 -999 -999
2007-05-08 12:38 51°14.211 2°50.444 -999 -999 -999 -999 -999
2007-05-08 12:39 51°14.199 2°50.354 -999 -999 -999 -999 -999
2007-05-08 12:40 51°14.171 2°50.278 -999 -999 -999 -999 -999
2007-05-08 12:41 51°14.144 2°50.197 -999 -999 -999 -999 -999
2007-05-08 12:42 51°14.122 2°50.111 -999 -999 -999 -999 -999
2007-05-08 12:43 51°14.086 2°50.036 -999 -999 -999 -999 -999
2007-05-08 12:44 51°14.043 2°49.969 -999 -999 -999 -999 -999
2007-05-08 12:45 51°14.011 2°49.892 -999 -999 -999 -999 -999
2007-05-08 12:46 51°13.997 2°49.801 -999 -999 -999 -999 -999
2007-05-08 12:47 51°13.993 2°49.712 -999 -999 -999 -999 -999
2007-05-08 12:48 51°13.975 2°49.628 -999 -999 -999 -999 -999
2007-05-08 12:49 51°13.952 2°49.542 -999 -999 -999 -999 -999
2007-05-08 12:50 51°13.923 2°49.461 -999 -999 -999 -999 -999
2007-05-08 12:51 51°13.889 2°49.385 -999 -999 -999 -999 -999
2007-05-08 12:52 51°13.859 2°49.308 -999 -999 -999 -999 -999
2007-05-08 12:53 51°13.839 2°49.225 -999 -999 -999 -999 -999
2007-05-08 12:54 51°13.822 2°49.144 -999 -999 -999 -999 -999
2007-05-08 12:55 51°13.794 2°49.065 -999 -999 -999 -999 -999
2007-05-08 12:56 51°13.759 2°48.991 -999 -999 -999 -999 -999
2007-05-08 12:57 51°13.721 2°48.927 -999 -999 -999 -999 -999
2007-05-08 12:58 51°13.687 2°48.868 -999 -999 -999 -999 -999
2007-05-08 12:59 51°13.666 2°48.795 -999 -999 -999 -999 -999
2007-05-08 13:00 51°13.641 2°48.711 -999 -999 -999 -999 -999
2007-05-08 13:01 51°13.611 2°48.639 -999 -999 -999 -999 -999
2007-05-08 13:02 51°13.58 2°48.583 -999 -999 -999 -999 -999
2007-05-08 13:03 51°13.56 2°48.518 -999 -999 -999 -999 -999
2007-05-08 13:04 51°13.559 2°48.424 -999 -999 -999 -999 -999
2007-05-08 13:05 51°13.576 2°48.339 -999 -999 -999 -999 -999
2007-05-08 13:06 51°13.605 2°48.284 -999 -999 -999 -999 -999
2007-05-08 13:07 51°13.65 2°48.253 -999 -999 -999 -999 -999
2007-05-08 13:08 51°13.702 2°48.273 -999 -999 -999 -999 -999
2007-05-08 13:09 51°13.74 2°48.298 -999 -999 -999 -999 -999
2007-05-08 13:10 51°13.764 2°48.312 -999 -999 -999 -999 -999
2007-05-08 13:11 51°13.778 2°48.33 -999 -999 -999 -999 -999
2007-05-08 13:12 51°13.79 2°48.352 -999 -999 -999 -999 -999
2007-05-08 13:13 51°13.845 2°48.388 -999 -999 -999 -999 -999
2007-05-08 13:14 51°13.882 2°48.528 -999 -999 -999 -999 -999
2007-05-08 13:15 51°13.924 2°48.698 -999 -999 -999 -999 -999
2007-05-08 13:16 51°13.973 2°48.875 -999 -999 -999 -999 -999
2007-05-08 13:17 51°14.021 2°49.057 -999 -999 -999 -999 -999
2007-05-08 13:18 51°14.065 2°49.244 -999 -999 -999 -999 -999
2007-05-08 13:19 51°14.104 2°49.434 -999 -999 -999 -999 -999
2007-05-08 13:20 51°14.145 2°49.635 -999 -999 -999 -999 -999
2007-05-08 13:21 51°14.207 2°49.926 -999 -999 -999 -999 -999
2007-05-08 13:22 51°14.271 2°50.256 -999 -999 -999 -999 -999
2007-05-08 13:23 51°14.333 2°50.589 -999 -999 -999 -999 -999
2007-05-08 13:24 51°14.379 2°50.938 -999 -999 -999 -999 -999
2007-05-08 13:25 51°14.426 2°51.274 -999 -999 -999 -999 -999
2007-05-08 13:26 51°14.485 2°51.619 -999 -999 -999 -999 -999
2007-05-08 13:27 51°14.548 2°51.956 -999 -999 -999 -999 -999
2007-05-08 13:28 51°14.586 2°52.31 -999 -999 -999 -999 -999
2007-05-08 13:29 51°14.613 2°52.658 -999 -999 -999 -999 -999
2007-05-08 13:30 51°14.632 2°53.008 -999 -999 -999 -999 -999
2007-05-08 13:31 51°14.642 2°53.368 -999 -999 -999 -999 -999
2007-05-08 13:32 51°14.647 2°53.719 -999 -999 -999 -999 -999
2007-05-08 13:33 51°14.626 2°54.083 -999 -999 -999 -999 -999
2007-05-08 13:34 51°14.565 2°54.423 -999 -999 -999 -999 -999
2007-05-08 13:35 51°14.48 2°54.748 -999 -999 -999 -999 -999
2007-05-08 13:36 51°14.376 2°55.06 -999 -999 -999 -999 -999
2007-05-08 13:37 51°14.232 2°55.307 -999 -999 -999 -999 -999
2007-05-08 13:38 51°14.069 2°55.467 -999 -999 -999 -999 -999
2007-05-08 13:39 51°13.947 2°55.551 -999 -999 -999 -999 -999
2007-05-08 13:40 51°13.847 2°55.614 -999 -999 -999 -999 -999
2007-05-08 13:41 51°13.768 2°55.682 -999 -999 -999 -999 -999
2007-05-08 13:42 51°13.715 2°55.764 -999 -999 -999 -999 -999
2007-05-08 13:43 51°13.671 2°55.852 -999 -999 -999 -999 -999
2007-05-08 13:44 51°13.633 2°55.942 -999 -999 -999 -999 -999
2007-05-08 13:45 51°13.618 2°56.023 -999 -999 -999 -999 -999
2007-05-08 13:46 51°13.606 2°56.082 -999 -999 -999 -999 -999
2007-05-08 13:47 51°13.602 2°56.098 -999 -999 -999 -999 -999
2007-05-08 13:48 51°13.602 2°56.099 -999 -999 -999 -999 -999
2007-05-08 13:49 51°13.602 2°56.099 -999 -999 -999 -999 -999